Regional Weather Roundup
Issued by NWS

Home | Current Version | Previous Version | Graphics & Text | Print | Product List | Glossary Off
Versions: 1 2 3 4 5 6 7 8 9 10 11 12 13 14 15 16 17 18 19 20 21 22 23 24 25 26 27 28 29 30 31 32 33 34 35 36 37 38 39 40 41 42 43 44 45 46 47 48 49 50

000
ASUS43 KMKX 271921
RWRWI

WISCONSIN REGIONAL WEATHER ROUNDUP
NATIONAL WEATHER SERVICE MILWAUKEE/SULLIVAN WI
100 PM CST MON FEB 27 2017

NOTE: "FAIR" INDICATES FEW OR NO CLOUDS BELOW 12,000 FEET WITH NO
SIGNIFICANT WEATHER AND/OR OBSTRUCTIONS TO VISIBILITY.

WIZ001-002-006>008-014>016-023>028-272000-
NORTHWEST WISCONSIN

CITY           SKY/WX    TMP DP  RH WIND       PRES   REMARKS
SUPERIOR ARPT  CLOUDY    29  22  73 NE5       29.97F WCI  24
ASHLAND        CLOUDY    34  23  64 SW10      29.97F WCI  26
HAYWARD        SUNNY     41  20  43 S12G21    29.93F
SIREN          MOSUNNY   42  20  41 SW14      29.93F
CUMBERLAND     MOSUNNY   39  19  45 S15G23    29.95F WCI  31
RICE LAKE      MOSUNNY   40  21  48 S13       29.98F WCI  32
CHETEK         MOSUNNY   37  20  49 S9        29.99F WCI  31
LADYSMITH      MOSUNNY   39  20  47 S9        29.99F WCI  33
EAU CLAIRE     CLOUDY    38  21  50 S10       30.00F WCI  31
MENOMONIE      CLOUDY    38  21  50 S8        30.00F WCI  32
NEW RICHMOND   MOSUNNY   41  18  39 S12       29.96F
OSCEOLA        CLOUDY    44  20  39 S13       29.97F
$$

WIZ003>005-009-010-017-018-272000-
NORTH CENTRAL WISCONSIN

CITY           SKY/WX    TMP DP  RH WIND       PRES   REMARKS
MANITOWISH WTR CLOUDY    37  21  53 SW18      29.94F WCI  27
ARBOR VITAE    CLOUDY    39  19  43 SW13G23     N/A  WCI  32
WOODRUFF       CLOUDY    39  19  43 SW13G23     N/A  WCI  32
RHINELANDER    MOSUNNY   39  17  41 S15G23    29.98F WCI  31
EAGLE RIVER    SUNNY     38  13  36 SW20G29   29.96F WCI  28
LAND O LAKES   CLOUDY    38  19  44 SW12G20   29.96F WCI  31
PHILLIPS       SUNNY     37  19  46 SW15G21   29.96F WCI  28
TOMAHAWK       SUNNY     39  12  33 SW9G17    29.99F WCI  33
MEDFORD        SUNNY     34  21  59 S9        30.00F WCI  26
MERRILL        NOT AVBL
$$

WIZ029-030-035-036-043>047-272000-
CENTRAL WISCONSIN

CITY           SKY/WX    TMP DP  RH WIND       PRES   REMARKS
WAUSAU         SUNNY     38  18  44 S10       30.01F WCI  31
MOSINEE        MOSUNNY   37  19  48 S9        30.04F WCI  31
MARSHFIELD     SUNNY     39  18  42 S8        30.01F WCI  33
STEVENS POINT  SUNNY     38  18  45 S10       30.04F WCI  31
WAUPACA        SUNNY     44  20  38 SE10      30.07F
WAUTOMA        PTSUNNY   43  21  41 MISG      30.06F
WISC RAPIDS    SUNNY     41  20  43 SW14      30.05F
CAMP DOUGLAS   MOSUNNY   41  21  45 S9        30.03F
$$

WIZ011>013-019>022-031-037>040-048>050-272000-
NORTHEAST WISCONSIN

CITY           SKY/WX    TMP DP  RH WIND       PRES   REMARKS
ANTIGO         SUNNY     37  19  47 SW13      30.02F WCI  29
SHAWANO        SUNNY     43  19  37 SW7       30.07F
OCONTO         SUNNY     38  23  53 S13       30.09F WCI  30
STURGEON BAY   SUNNY     37  25  61 S14       30.10F WCI  28
GREEN BAY      SUNNY     39  26  59 S12       30.10F WCI  32
MANITOWOC      MOSUNNY   37  28  70 S17       30.13F WCI  27
APPLETON       MOSUNNY   39  21  48 S10       30.08F WCI  32
CLINTONVILLE   SUNNY     39  21  48 S12       30.07F WCI  32
OSHKOSH        MOSUNNY   39  25  57 S14       30.09F WCI  31
$$

WIZ032>034-041-042-053>061-272000-
SOUTHWEST WISCONSIN

CITY           SKY/WX    TMP DP  RH WIND       PRES   REMARKS
LA CROSSE      SUNNY     44  24  45 S8        30.03F
SPARTA         SUNNY     43  22  42 S6        30.04F
VIROQUA        SUNNY     41  28  59 S6        30.02F
BOSCOBEL       MOSUNNY   46  33  60 SW9       30.05F
PRAIRIE DU CHI MOSUNNY   45  33  61 S7        30.04F
PLATTEVILLE    SUNNY     45  37  74 S13       30.05F
$$

WIZ056-057-062-063-064-067-068-272000-
SOUTH CENTRAL WISCONSIN

CITY           SKY/WX    TMP DP  RH WIND       PRES   REMARKS
REEDSBURG      PTSUNNY   42  30  63 S9        30.04F
BARABOO/DELLS  PTSUNNY   39  28  63 S8        30.05F WCI  34
LONE ROCK      SUNNY     46  32  58 S10       30.05F
MINERAL POINT  SUNNY     46  36  66 S16       30.04F
MADISON        PTSUNNY   43  30  60 S12       30.07F
MIDDLETON      PTSUNNY   46  34  61 S10       30.06F
WATERTOWN      CLOUDY    44  32  63 S10       30.08F
MONROE         SUNNY     46  32  57 SW16      30.07F
JANESVILLE     MOSUNNY   50  30  46 SW12      30.08F
$$

WIZ051-052-058>065-066-070>072-272000-
SOUTHEAST WISCONSIN

CITY           SKY/WX    TMP DP  RH WIND       PRES   REMARKS
MILWAUKEE      PTSUNNY   46  31  55 SE8       30.12F
WAUKESHA       CLOUDY    43  28  56 S10       30.10F
MILWAUKEE/TIMM PTSUNNY   45  27  49 S10       30.11F
RACINE         SUNNY     42  30  62 S16       30.13F
KENOSHA        MOSUNNY   48  32  53 SE14      30.11F
FOND DU LAC    PTSUNNY   40  24  53 S12       30.09F WCI  33
SHEBOYGAN      MOSUNNY   38  28  67 S14       30.12F WCI  30
WEST BEND      CLOUDY    41  28  60 S5        30.10F
JUNEAU         CLOUDY    40  29  65 S9        30.09F WCI  33
$$

LSZ147-162-272000-
LAKE SUPERIOR

STATION/POSITION TIME  TEMP    WIND        PRES    WAVE
                       AIR SEA DIR/SP/G            HT/PER
                 (UTC) (F)     (DEG/KT/KT) (MB)    (FT/S)
DEVILS ISLAND    1900   25      50/  5/  5 1016.6F
PORT WING        1840   27      10/  6/  8 1015.2F
SAXON HARBOR     1840   28      10/  4/  5 1015.2F
$$

LMZ867-665-643>646-272000-
LAKE MICHIGAN

STATION/POSITION TIME  TEMP    WIND        PRES    WAVE
                       AIR SEA DIR/SP/G            HT/PER
                 (UTC) (F)     (DEG/KT/KT) (MB)    (FT/S)
CHAMBERS ISLAND  1840   36     220/  5/  8 1019.0F
NORTHPORT PIER   1830   35     160/ 10/ 18 1019.6F
SISTER BAY       1835          190/ 12/ 16   N/A
KEWAUNEE LAKESHO 1842   35     180/ 15/ 16 1019.7F
SHEBOYGAN LAKESH 1900   36     170/ 12/ 13 1020.6F
PORT WASHINGTON  1840   39     150/  7/  9 1021.0F
MILWAUKEE LAKESH 1850   37     130/ 13/ 14   N/A
KENOSHA   LAKESH 1900   37     170/ 13/ 14 1020.0
$$

TC  - TEMPERATURE IN CELSIUS
VSB - VISIBILITY IN STATUTE MILES
WCI - WIND CHILL INDEX
HX  - HEAT INDEX





USA.gov is the U.S. government's official web portal to all federal, state and local government web resources and services.